Wetbulb
65.62 69.82 72.33 72.06 71.95 71.75 71.55 71.40 71.09 70.85 70.26 69.74 69.33 68.53 67.90 67.62 67.16 66.81 66.38 66.14 65.90 65.62 65.66 65.44 65.12 64.81 64.62 64.63 64.31 63.50 61.56 60.98 60.85 60.61 60.58 62.18 66.78 70.58 70.72 70.79 70.88 70.98 71.46
67.19 70.16 71.96 71.97 71.70 71.46 70.98 70.52 69.87 69.33 68.90 68.42 67.75 67.12 66.70 66.29 65.80 65.45 65.12 64.88 64.66 64.45 64.31 63.98 63.68 63.44 63.56 63.31 62.88 61.98 59.84 58.94 58.10 57.93 58.27 58.92 62.71 67.85 69.21 69.19 69.81 70.20 70.90
67.94 69.96 70.19 71.54 70.73 70.33 69.83 69.32 68.64 68.12 67.42 66.91 66.51 65.98 65.49 65.11 64.58 64.32 63.99 63.62 63.26 63.16 62.76 62.36 62.09 62.44 62.33 61.96 61.24 60.35 57.75 56.51 55.54 54.56 55.97 57.66 61.24 66.48 66.96 66.73 67.25 68.12 68.49
67.82 68.80 68.69 70.34 69.82 69.32 68.46 67.85 67.30 66.87 66.29 65.76 65.34 64.95 64.50 64.08 63.57 62.99 62.55 62.03 61.94 62.00 61.36 61.07 61.52 60.71 60.76 60.41 59.94 58.79 55.74 54.14 52.88 51.39 53.22 57.09 58.66 64.62 65.19 65.13 65.44 65.98 66.32
66.17 67.27 68.28 69.37 68.93 68.15 67.58 66.94 66.36 65.84 65.44 64.92 64.53 63.86 63.40 62.84 62.23 61.62 61.32 61.10 60.97 60.78 60.48 60.47 59.26 59.44 59.22 58.97 58.20 56.68 53.87 51.82 50.07 49.20 52.36 57.67 58.92 62.22 63.58 63.62 63.51 63.92 64.32
63.88 65.90 68.06 68.14 67.35 66.93 66.34 65.95 65.63 65.38 64.95 64.30 63.45 62.65 61.96 61.84 61.25 60.77 60.52 60.22 60.14 59.70 59.65 58.69 58.11 57.66 57.73 57.09 56.17 54.78 52.15 49.73 47.21 47.90 50.95 54.75 58.88 61.80 62.42 62.16 62.12 62.46 62.67
62.76 65.24 65.86 67.12 66.51 66.09 65.67 65.36 65.07 64.81 64.24 63.48 62.55 61.85 61.44 61.22 60.70 60.03 59.84 59.64 59.09 58.45 58.17 57.18 56.93 56.58 56.21 55.43 54.48 53.47 50.68 47.49 44.44 46.81 49.96 52.94 57.73 60.29 60.86 60.46 60.52 60.88 61.21
62.19 63.78 64.88 65.50 66.36 65.60 65.17 64.74 64.46 64.02 63.36 62.51 61.58 61.20 60.93 60.53 59.94 59.07 59.14 58.36 57.72 57.30 56.56 55.72 55.21 55.07 54.79 53.95 52.76 51.35 49.66 46.00 43.39 45.30 49.27 52.07 56.79 58.99 59.40 59.24 58.95 59.31 59.62
62.12 62.29 63.37 64.07 64.61 65.11 65.09 64.52 63.73 63.00 62.12 61.60 60.55 60.12 59.58 59.13 58.89 58.25 57.93 56.79 56.70 55.79 54.90 54.02 53.53 53.00 52.68 52.23 50.99 49.02 47.39 45.51 42.63 45.26 47.91 52.23 55.80 58.09 58.33 57.84 57.84 58.17 58.48
60.18 60.74 61.38 62.33 62.70 62.91 63.04 63.81 63.16 62.03 60.85 60.43 59.26 58.04 57.05 57.12 56.78 56.32 55.18 55.05 54.92 54.31 53.29 52.59 51.18 49.76 49.98 49.95 48.90 46.99 44.90 43.48 41.64 43.79 47.23 51.45 54.94 56.99 57.34 56.94 57.09 57.29 57.51
58.10 58.85 59.91 60.06 60.21 60.29 61.02 61.22 61.80 61.03 60.08 58.20 56.86 54.62 50.94 49.64 50.82 50.99 52.29 52.38 52.55 52.34 51.62 50.44 49.04 47.66 44.93 45.49 46.34 44.91 42.25 40.67 40.92 41.77 46.02 51.38 54.61 56.37 56.07 55.59 55.93 56.54 56.78
57.14 56.89 58.84 58.42 58.30 58.23 58.01 57.74 56.61 55.71 52.48 51.39 49.31 46.03 46.43 47.38 48.75 48.57 48.66 48.90 48.72 48.58 48.27 47.53 46.14 44.15 41.42 40.31 40.62 41.18 40.19 40.03 40.09 40.46 45.50 50.39 52.71 54.00 54.50 54.82 54.35 54.67 55.23
57.20 57.09 56.97 56.96 56.55 55.77 53.80 51.80 50.12 48.88 47.18 45.05 43.91 44.64 45.07 44.15 42.51 41.25 40.59 40.46 40.78 41.00 39.55 39.77 39.59 39.41 39.21 39.44 39.57 39.56 39.55 39.49 39.67 40.03 44.39 47.84 50.53 52.99 53.64 52.65 52.22 52.48 52.78
55.81 56.51 55.90 56.02 54.40 53.47 51.69 49.54 47.49 45.74 44.04 42.70 43.09 41.88 40.96 40.35 39.98 39.65 39.40 39.39 39.16 39.27 38.45 38.62 38.56 38.46 38.33 38.27 38.42 38.38 38.57 38.85 39.25 39.80 41.19 45.79 48.33 50.15 50.44 50.97 51.49 51.32 51.64
54.77 55.45 55.22 54.38 53.10 50.73 48.99 46.75 45.46 44.38 42.57 42.15 41.53 41.01 40.66 40.01 39.14 39.09 38.58 38.69 38.41 38.69 38.17 37.71 37.73 37.40 37.37 37.49 37.71 37.58 37.59 37.73 38.12 39.29 40.09 42.91 45.06 46.02 47.54 49.39 50.19 50.59 50.44
54.89 54.79 54.73 53.45 51.81 49.75 47.22 45.87 44.13 42.86 41.36 41.41 40.90 40.51 40.15 39.88 39.13 38.86 38.28 37.94 37.93 38.21 37.88 37.53 36.97 36.75 36.65 36.96 36.59 36.86 37.03 37.49 37.59 38.14 39.46 40.17 41.33 42.42 44.62 47.37 48.31 48.66 48.98
54.69 54.88 53.53 52.73 50.14 48.93 46.05 44.21 42.74 41.70 41.05 40.65 40.31 40.04 39.74 39.56 39.42 38.53 37.89 37.35 37.22 37.36 36.90 36.78 36.33 36.47 36.53 36.31 35.72 36.69 37.15 36.62 37.21 37.47 38.50 38.72 38.13 38.35 41.20 44.68 45.52 46.31 46.63
54.47 53.67 53.57 52.68 49.24 47.96 45.24 43.33 42.24 41.51 41.00 40.07 39.76 39.72 39.35 39.09 38.85 38.02 37.24 36.75 36.72 36.62 36.63 35.98 35.74 35.65 35.55 34.92 35.38 36.47 36.37 36.60 36.30 37.03 37.87 36.95 37.11 37.77 37.64 41.04 42.38 43.22 43.70
53.90 53.19 52.58 52.26 48.54 46.86 44.35 42.75 42.21 41.09 40.61 39.79 39.35 39.15 38.79 38.43 38.03 37.69 36.93 36.20 36.21 35.79 35.66 35.80 34.75 34.76 34.26 34.18 34.88 36.16 35.52 36.16 36.20 36.70 36.40 36.15 36.45 36.69 36.96 37.18 38.80 39.07 40.47
53.51 53.00 52.49 51.39 48.64 46.45 43.86 42.75 41.71 40.59 39.65 39.27 38.82 38.71 38.38 38.07 37.51 37.09 36.33 35.72 35.74 35.12 34.50 34.43 34.03 33.99 33.86 32.64 33.05 33.95 34.96 35.83 36.23 36.49 35.92 35.75 35.81 35.90 36.20 35.60 35.73 35.58 37.72
52.29 51.44 51.38 50.11 48.01 45.80 43.10 40.96 40.16 38.94 38.55 37.88 38.22 38.25 37.91 37.50 37.02 36.57 35.93 35.20 35.17 34.69 33.77 33.79 33.64 32.91 33.20 32.61 33.60 35.25 35.25 34.63 34.71 35.58 35.68 34.94 34.86 35.18 35.27 35.13 34.91 34.68 34.75
50.54 50.19 50.17 49.73 47.20 46.20 44.71 43.95 43.34 41.15 39.35 39.00 38.28 37.77 37.79 37.20 36.79 36.10 35.45 34.72 34.46 33.36 32.84 32.78 32.77 32.63 32.38 31.66 31.94 31.82 31.71 34.25 35.35 34.76 34.31 34.39 34.27 34.55 34.19 34.28 33.96 33.75 34.21
49.18 49.29 49.44 49.35 46.80 47.04 45.54 44.37 41.39 38.52 37.56 36.49 36.55 36.77 36.75 36.89 36.49 36.13 35.24 34.55 33.86 33.78 32.55 32.33 31.82 31.42 31.41 31.00 30.85 31.90 31.07 30.04 28.70 33.25 32.89 33.03 33.12 33.26 33.65 33.46 33.12 33.53 33.60
48.01 49.14 49.33 48.93 46.90 46.80 45.19 42.70 39.55 39.72 37.05 38.97 37.39 37.41 36.45 36.56 36.13 35.59 34.89 34.21 33.81 33.27 32.16 32.05 31.71 31.50 31.39 30.39 30.89 31.26 30.52 29.77 27.84 27.53 32.03 32.06 31.92 31.74 32.19 32.67 32.42 32.78 33.04
47.99 47.61 48.39 48.45 46.84 46.58 44.55 43.55 41.22 41.63 40.95 39.46 37.16 35.55 35.56 35.52 35.84 34.92 34.43 33.68 33.12 32.69 32.09 32.44 30.69 30.37 30.96 30.58 30.37 29.67 28.98 29.26 28.49 26.10 24.54 27.91 30.25 31.95 31.83 32.02 32.03 32.02 32.44
48.08 47.25 47.46 47.19 46.12 46.51 44.63 43.79 42.45 42.36 39.15 36.42 35.85 35.16 34.74 34.87 34.24 34.06 33.35 32.96 32.91 32.02 31.33 31.10 30.74 30.09 30.02 29.94 30.18 29.30 28.82 28.15 27.25 26.24 24.61 26.05 25.85 28.89 31.03 31.61 31.80 32.14 32.41
MSLP
1013.75 1013.87 1013.93 1014.39 1014.89 1015.16 1015.54 1015.99 1016.37 1016.61 1016.73 1017.04 1017.55 1017.93 1018.35 1018.44 1018.70 1018.95 1019.22 1019.40 1019.53 1019.82 1019.68 1019.80 1019.76 1019.74 1019.71 1019.71 1019.82 1019.85 1019.95 1019.90 1019.84 1019.73 1019.69 1019.44 1018.88 1018.38 1018.33 1018.28 1018.05 1017.80 1017.93
1013.18 1013.57 1013.85 1014.32 1014.88 1015.28 1015.75 1016.02 1016.45 1016.83 1017.06 1017.58 1018.02 1018.30 1018.62 1018.88 1019.14 1019.22 1019.52 1019.76 1019.87 1020.07 1020.08 1020.23 1020.19 1020.22 1020.04 1020.07 1020.15 1020.33 1020.36 1020.39 1020.40 1020.22 1020.01 1019.80 1019.33 1018.78 1018.69 1018.70 1018.57 1018.40 1018.30
1013.25 1013.49 1013.82 1014.28 1014.86 1015.29 1015.78 1016.27 1016.81 1017.21 1017.61 1017.97 1018.17 1018.59 1018.99 1019.28 1019.61 1019.69 1019.87 1020.17 1020.18 1020.25 1020.41 1020.52 1020.52 1020.58 1020.44 1020.44 1020.58 1020.72 1020.96 1020.91 1020.76 1020.68 1020.41 1020.09 1019.72 1019.36 1019.15 1019.00 1018.99 1018.95 1018.84
1013.20 1013.41 1013.82 1014.42 1015.02 1015.50 1015.97 1016.65 1017.05 1017.37 1017.92 1018.27 1018.52 1018.86 1019.29 1019.55 1019.89 1020.13 1020.24 1020.66 1020.52 1020.43 1020.94 1021.11 1020.92 1021.06 1020.90 1020.91 1021.01 1021.18 1021.36 1021.37 1021.24 1021.07 1020.73 1020.48 1020.20 1019.85 1019.73 1019.59 1019.48 1019.41 1019.26
1013.23 1013.66 1013.91 1014.77 1015.21 1015.73 1016.10 1016.63 1017.15 1017.57 1017.97 1018.42 1018.74 1019.15 1019.56 1019.78 1020.10 1020.42 1020.61 1020.90 1020.83 1021.09 1021.25 1021.40 1021.57 1021.50 1021.41 1021.33 1021.45 1021.70 1021.76 1021.75 1021.61 1021.44 1021.37 1020.91 1020.64 1020.37 1020.27 1020.18 1020.00 1019.92 1019.82
1013.67 1013.60 1014.20 1014.86 1015.41 1015.82 1016.26 1016.74 1017.19 1017.70 1018.06 1018.44 1018.97 1019.34 1019.89 1020.02 1020.47 1020.70 1020.94 1020.83 1021.24 1021.39 1021.76 1021.63 1021.90 1022.04 1021.77 1021.91 1021.85 1022.02 1022.24 1022.31 1022.11 1021.85 1021.78 1021.42 1020.90 1020.82 1020.73 1020.66 1020.56 1020.42 1020.28
1013.74 1013.81 1014.41 1015.05 1015.47 1016.06 1016.40 1016.84 1017.34 1017.86 1018.21 1018.60 1019.10 1019.47 1019.88 1020.16 1020.64 1021.13 1021.14 1021.04 1021.43 1022.03 1022.17 1022.34 1022.25 1022.40 1022.16 1022.25 1022.27 1022.30 1022.63 1022.81 1022.71 1022.43 1022.22 1021.94 1021.32 1021.18 1021.07 1021.05 1020.89 1020.73 1020.61
1013.67 1014.18 1014.63 1015.25 1015.72 1016.12 1016.45 1017.11 1017.59 1018.10 1018.45 1018.82 1019.30 1019.55 1019.96 1020.23 1020.89 1021.40 1021.23 1021.19 1021.48 1022.36 1022.64 1022.65 1022.74 1022.68 1022.50 1022.58 1022.63 1022.75 1023.00 1023.22 1023.14 1022.96 1022.69 1022.42 1021.93 1021.63 1021.46 1021.33 1021.24 1021.04 1020.91
1014.16 1014.55 1014.84 1015.26 1015.65 1016.25 1016.73 1017.36 1017.85 1018.43 1018.65 1019.10 1019.53 1019.97 1020.25 1020.51 1021.03 1021.40 1021.55 1021.59 1021.75 1022.18 1022.90 1022.97 1023.17 1023.03 1022.95 1022.95 1022.99 1023.26 1023.47 1023.65 1023.35 1023.29 1022.95 1022.53 1022.29 1021.90 1021.74 1021.61 1021.49 1021.33 1021.18
1014.37 1014.67 1015.19 1015.31 1015.73 1016.41 1016.99 1017.58 1018.13 1018.46 1018.97 1019.23 1019.89 1020.62 1020.77 1021.32 1021.58 1021.88 1022.14 1022.12 1022.48 1022.72 1022.98 1023.37 1023.49 1023.39 1023.44 1023.36 1023.46 1023.61 1023.87 1023.82 1023.73 1023.61 1023.43 1022.99 1022.57 1022.15 1021.97 1021.85 1021.77 1021.56 1021.42
1014.59 1015.13 1015.39 1015.50 1015.89 1016.49 1017.10 1017.88 1018.27 1018.80 1019.24 1019.57 1020.14 1021.28 1021.63 1021.83 1022.25 1022.55 1022.82 1022.68 1022.70 1022.99 1023.48 1023.69 1023.79 1023.63 1023.99 1024.02 1023.83 1024.03 1024.18 1024.13 1024.00 1024.00 1023.85 1023.44 1022.82 1022.46 1022.29 1022.15 1021.96 1021.71 1021.54
1014.64 1015.02 1015.43 1015.57 1015.98 1016.55 1017.29 1018.08 1018.55 1019.27 1019.80 1020.20 1020.82 1022.03 1021.72 1022.20 1022.54 1022.92 1023.47 1023.29 1023.35 1023.65 1024.11 1024.08 1024.14 1024.13 1024.24 1024.43 1024.29 1024.52 1024.61 1024.46 1024.37 1024.41 1024.20 1023.73 1023.23 1022.88 1022.67 1022.53 1022.38 1022.17 1021.94
1014.35 1014.97 1015.13 1015.48 1016.06 1016.66 1017.56 1018.38 1018.95 1019.69 1020.40 1020.77 1021.37 1022.00 1022.07 1022.69 1022.84 1023.44 1023.87 1024.02 1024.04 1024.28 1024.77 1024.63 1024.65 1024.54 1024.63 1024.92 1024.84 1024.97 1025.00 1024.79 1024.76 1024.81 1024.70 1024.22 1023.70 1023.26 1023.13 1023.06 1022.84 1022.63 1022.38
1013.90 1014.45 1014.94 1015.45 1016.15 1016.65 1017.45 1018.32 1019.24 1019.97 1020.66 1021.20 1021.76 1021.87 1022.24 1023.08 1023.14 1023.17 1023.99 1024.17 1024.44 1024.66 1025.06 1025.01 1025.07 1025.01 1025.13 1025.38 1025.33 1025.29 1025.34 1025.20 1025.01 1025.07 1025.14 1024.64 1024.16 1023.87 1023.71 1023.48 1023.16 1022.92 1022.69
1013.44 1014.22 1014.77 1015.51 1016.05 1016.75 1017.47 1018.43 1019.08 1020.04 1020.89 1021.18 1021.83 1022.32 1022.64 1023.01 1023.12 1023.14 1023.85 1024.46 1024.64 1024.93 1025.24 1025.23 1025.21 1025.21 1025.42 1025.68 1025.60 1025.53 1025.54 1025.33 1025.16 1025.21 1025.31 1025.06 1024.69 1024.45 1024.13 1023.74 1023.46 1023.22 1022.97
1012.94 1013.53 1014.40 1015.29 1015.89 1016.49 1017.54 1018.21 1019.17 1019.83 1020.69 1020.91 1021.91 1022.33 1022.75 1023.11 1023.13 1023.27 1023.83 1024.39 1024.79 1025.13 1025.47 1025.36 1025.30 1025.40 1025.73 1025.79 1025.61 1025.64 1025.62 1025.35 1025.27 1025.28 1025.42 1025.32 1025.12 1024.84 1024.51 1024.14 1023.85 1023.58 1023.26
1011.30 1012.55 1013.75 1015.01 1015.41 1016.19 1017.16 1018.01 1018.98 1019.93 1020.46 1021.25 1021.83 1022.39 1022.16 1023.18 1023.07 1023.41 1023.84 1024.33 1024.84 1025.29 1025.49 1025.46 1025.52 1025.60 1025.66 1025.68 1025.56 1025.61 1025.48 1025.30 1025.25 1025.38 1025.48 1025.49 1025.25 1025.14 1024.94 1024.52 1024.13 1023.86 1023.53
1011.19 1012.05 1013.44 1014.35 1015.10 1016.20 1017.05 1017.86 1018.74 1019.39 1020.10 1021.29 1021.81 1022.24 1022.16 1023.27 1023.07 1023.32 1023.84 1024.31 1024.87 1025.30 1025.40 1025.35 1025.53 1025.58 1025.80 1025.64 1025.43 1025.18 1025.12 1025.21 1025.24 1025.21 1025.25 1025.32 1025.16 1025.13 1025.14 1024.82 1024.41 1024.14 1023.85
1010.16 1011.39 1012.50 1013.53 1014.73 1015.61 1016.80 1017.73 1018.65 1019.30 1020.01 1021.20 1021.79 1021.92 1022.29 1023.17 1022.93 1023.29 1023.79 1024.41 1024.91 1025.29 1025.40 1025.24 1025.63 1025.91 1026.00 1025.77 1025.42 1025.11 1025.12 1025.07 1025.06 1024.95 1025.08 1025.16 1025.13 1025.25 1025.23 1025.04 1024.79 1024.57 1024.18
1010.00 1011.05 1011.80 1013.01 1014.16 1015.01 1016.52 1017.75 1018.67 1019.42 1020.30 1020.93 1021.38 1021.40 1022.32 1022.93 1022.95 1023.34 1023.80 1024.37 1024.94 1025.23 1025.33 1025.44 1025.67 1026.11 1026.33 1026.16 1025.52 1025.17 1025.12 1025.01 1024.90 1024.88 1025.02 1025.10 1025.11 1025.26 1025.26 1025.16 1024.96 1024.64 1024.22
1009.47 1010.51 1011.35 1012.35 1013.53 1014.34 1015.75 1016.91 1018.09 1018.78 1019.82 1020.77 1021.06 1021.31 1022.19 1022.72 1022.95 1023.16 1023.72 1024.47 1024.88 1024.87 1025.13 1025.46 1025.79 1026.18 1026.31 1026.23 1025.70 1025.07 1024.83 1024.83 1024.69 1024.76 1024.98 1024.96 1025.01 1025.11 1025.15 1025.05 1024.83 1024.55 1024.13
1008.15 1009.17 1010.46 1011.23 1012.32 1013.20 1014.65 1015.76 1016.73 1017.93 1019.31 1020.00 1020.62 1021.31 1021.89 1022.49 1022.75 1022.95 1023.52 1024.26 1024.57 1024.79 1025.16 1025.54 1025.91 1026.21 1026.51 1026.75 1026.31 1026.00 1025.15 1024.77 1024.57 1024.60 1024.77 1024.85 1024.82 1024.96 1024.86 1024.69 1024.45 1024.30 1023.95
1007.38 1008.10 1009.07 1010.02 1011.27 1012.15 1013.93 1015.28 1016.52 1018.11 1019.37 1020.18 1020.53 1021.05 1021.62 1022.15 1022.44 1022.67 1023.40 1023.99 1024.33 1024.56 1025.05 1025.55 1025.96 1026.27 1026.59 1027.13 1027.03 1026.47 1026.01 1025.68 1025.42 1024.68 1024.57 1024.77 1024.77 1024.64 1024.44 1024.26 1023.97 1023.66 1023.40
1005.69 1006.89 1007.95 1009.21 1009.99 1011.55 1012.62 1013.71 1014.49 1015.22 1016.85 1017.82 1019.05 1020.24 1021.29 1021.86 1022.23 1022.63 1023.26 1023.74 1024.05 1024.45 1025.01 1025.55 1026.01 1026.44 1026.89 1027.04 1027.26 1027.07 1026.98 1026.98 1026.64 1025.29 1024.46 1024.32 1024.54 1024.30 1024.07 1023.72 1023.61 1023.20 1022.93
1004.77 1005.81 1006.98 1008.18 1009.24 1010.34 1011.27 1012.28 1013.45 1014.56 1016.01 1017.18 1018.64 1019.93 1020.86 1021.57 1021.93 1022.42 1023.12 1023.56 1023.90 1024.31 1024.98 1025.34 1025.91 1026.57 1027.06 1027.11 1026.95 1027.10 1027.21 1027.28 1027.45 1027.42 1025.72 1024.41 1024.31 1024.16 1024.00 1023.51 1023.22 1022.79 1022.38
1003.93 1004.94 1006.07 1007.07 1008.10 1009.36 1010.61 1011.67 1012.54 1013.54 1014.93 1016.35 1017.91 1019.16 1020.28 1021.15 1021.82 1022.30 1022.92 1023.34 1023.61 1024.17 1024.85 1025.28 1025.79 1026.43 1026.88 1027.03 1027.09 1027.13 1026.97 1027.11 1027.24 1027.30 1026.74 1025.63 1025.05 1023.66 1023.40 1023.02 1022.69 1022.23 1021.85
Wind_Speed
9 12 19 20 20 20 19 19 19 19 19 19 18 17 16 16 15 15 15 15 16 15 16 15 15 15 15 16 17 18 18 18 18 17 16 14 16 15 17 16 13 13 14
14 15 20 22 22 21 20 20 18 18 19 18 17 16 16 16 15 16 15 15 15 14 15 14 14 14 16 17 17 18 18 18 18 17 16 15 15 15 18 18 19 16 18
16 18 20 20 20 19 18 18 18 18 17 17 17 17 16 16 15 15 15 14 14 15 15 14 14 15 16 17 17 17 17 17 17 16 16 11 12 17 17 18 19 19 19
15 16 16 20 20 20 20 19 19 19 18 17 17 16 16 16 15 15 15 13 15 16 15 14 16 15 16 16 17 17 16 17 16 16 10 11 10 16 16 17 17 18 18
14 14 16 21 22 21 21 21 20 19 19 18 17 16 15 16 15 15 15 14 15 15 14 16 15 15 15 16 16 16 16 16 15 13 10 11 8 13 15 16 15 15 16
13 14 18 21 21 21 21 21 21 20 19 19 17 17 15 16 15 15 15 16 16 15 15 15 15 14 16 15 16 16 16 16 13 11 10 11 11 14 15 15 15 14 14
13 14 15 21 22 22 22 21 21 20 19 19 18 17 16 16 16 14 15 17 16 14 14 15 15 14 16 16 16 17 17 16 10 10 10 10 11 13 13 14 14 14 14
14 13 14 19 21 22 21 20 20 20 20 19 18 18 17 17 16 14 16 17 16 15 14 15 15 15 16 16 16 17 16 15 10 9 10 9 13 13 13 14 13 13 13
13 13 11 14 16 19 19 19 19 19 19 19 18 17 18 17 16 16 17 17 17 16 14 15 14 16 16 16 17 16 16 15 9 8 9 7 14 14 14 15 15 14 14
11 11 11 12 13 12 13 18 17 18 18 20 19 17 17 16 17 16 16 17 16 16 15 14 15 16 16 16 16 16 14 13 10 8 7 8 14 14 15 15 15 15 15
9 10 11 11 11 11 11 13 16 18 17 20 18 17 13 8 11 13 15 17 17 16 15 14 14 16 14 14 16 15 12 6 8 6 6 14 14 15 16 16 16 16 16
17 13 12 12 13 12 9 9 9 10 9 10 11 11 9 10 10 12 14 16 16 15 14 14 14 14 11 6 6 9 5 7 6 6 6 13 14 14 14 17 18 17 17
16 12 13 13 13 12 9 7 5 6 6 7 11 9 9 7 7 6 5 5 6 10 5 7 7 7 9 6 6 5 6 6 4 5 7 12 12 13 15 16 16 17 17
19 16 14 15 13 12 8 7 8 7 7 7 8 11 8 6 7 8 5 6 6 4 5 5 4 7 7 7 6 5 5 4 4 4 5 10 11 14 15 15 16 17 17
19 17 17 15 14 12 11 9 9 9 7 8 8 8 7 7 7 8 7 5 5 5 4 5 5 5 5 5 4 4 4 5 5 3 3 8 11 13 14 15 17 17 17
21 21 18 17 14 14 12 12 8 8 9 9 8 8 9 7 7 8 7 6 5 4 4 4 5 5 4 3 4 3 4 4 4 4 3 4 10 13 13 16 18 19 19
23 21 20 18 16 16 14 12 10 8 8 8 8 10 11 8 9 9 7 6 5 4 5 4 5 4 3 3 3 1 2 4 3 3 2 3 4 8 11 15 19 20 20
19 22 20 16 16 15 14 11 9 9 9 8 8 8 11 9 10 9 7 6 6 4 4 4 4 3 3 4 4 3 3 2 2 2 2 5 5 4 7 14 18 20 19
21 22 22 20 19 18 14 10 11 12 9 9 8 8 11 10 10 9 7 7 6 4 4 4 4 3 3 5 4 3 3 0 1 0 0 6 6 4 4 10 15 18 18
19 19 20 17 20 18 12 10 8 9 8 9 9 9 12 9 10 9 8 8 6 5 4 4 4 4 3 5 4 4 2 1 2 1 2 5 5 5 5 7 9 10 17
18 20 22 21 20 16 13 13 11 11 9 9 9 12 12 10 11 10 7 8 6 5 5 4 3 4 3 6 4 2 2 3 3 3 2 5 5 5 5 7 7 8 8
22 22 22 23 22 18 14 13 9 11 8 9 8 11 11 12 11 10 10 8 7 6 6 5 3 2 2 5 3 1 3 0 2 3 3 2 6 6 7 10 11 11 10
22 24 24 23 23 21 18 12 8 8 6 7 9 9 10 12 11 11 10 8 8 6 5 5 4 3 2 2 4 3 1 3 6 1 2 3 6 6 9 10 12 11 12
23 22 23 24 24 22 23 18 22 18 13 9 11 9 9 11 11 10 10 9 8 6 6 5 4 3 2 1 1 2 3 2 3 7 2 5 6 12 13 10 10 12 12
23 22 23 23 23 22 23 21 17 17 12 9 10 14 12 10 11 11 10 10 9 6 6 6 6 5 2 2 2 2 1 1 4 5 8 8 10 7 11 10 11 11 12
19 20 21 24 23 22 22 22 23 22 17 14 14 12 10 8 8 10 10 9 8 8 7 6 6 5 4 3 3 3 3 2 2 4 6 9 12 11 11 12 10 9 10
Wind_Direction
171 163 149 147 143 139 136 130 124 114 105 99 97 101 105 102 101 97 89 82 75 72 68 63 60 59 59 58 54 52 48 46 45 43 37 34 20 43 50 42 33 38 42
150 161 148 144 141 133 127 120 115 106 104 109 114 114 106 100 98 95 90 84 79 75 68 64 61 60 62 58 53 50 46 44 42 43 37 30 17 40 48 41 39 41 42
148 150 144 137 131 123 117 116 119 119 122 122 116 112 108 102 98 94 89 87 85 78 73 69 67 67 63 59 53 54 46 44 43 39 40 35 31 41 40 39 37 32 31
146 144 138 129 135 133 132 133 133 129 127 123 117 114 110 105 99 94 90 88 82 80 74 70 70 64 64 60 56 52 49 45 43 40 41 34 30 41 42 41 35 31 32
138 142 130 138 141 142 141 139 137 134 130 126 118 114 111 104 100 97 94 92 83 78 79 74 68 67 65 63 58 54 49 46 46 45 41 35 29 40 40 37 35 31 29
144 130 139 149 150 145 144 143 139 137 133 127 122 117 112 108 104 98 102 92 82 80 77 77 72 68 67 63 61 57 50 44 42 46 38 28 36 39 39 37 32 28 25
141 138 145 153 150 149 147 145 142 141 135 130 126 122 119 113 108 108 100 90 87 81 78 75 74 69 69 62 58 56 52 42 43 47 38 23 34 35 37 34 29 25 19
139 140 153 156 152 151 147 147 145 142 138 132 129 126 121 118 114 109 101 96 93 85 79 76 71 69 66 63 59 54 50 45 45 46 40 28 29 31 32 29 24 20 14
143 147 150 153 150 150 149 149 147 145 140 135 129 124 118 117 117 110 102 97 93 90 80 74 71 65 61 60 57 55 52 49 53 43 35 32 24 28 28 26 20 16 11
145 150 150 149 151 148 149 148 147 142 138 133 127 122 118 116 106 100 99 94 88 84 80 74 71 65 59 57 57 53 48 45 45 43 32 28 24 27 27 24 20 17 12
152 161 156 148 143 138 141 149 143 137 137 128 124 114 104 101 105 105 98 91 88 82 77 73 66 67 62 54 54 49 44 41 38 33 22 23 26 29 27 23 18 16 11
175 168 162 150 144 139 139 133 120 124 115 117 121 131 120 113 112 105 93 87 83 79 73 69 66 62 57 47 47 44 39 38 40 32 23 23 24 25 28 27 18 12 8
172 170 165 151 147 142 139 130 119 119 124 125 132 135 120 113 113 104 101 89 84 80 70 64 55 54 52 40 44 40 30 31 32 36 22 23 27 35 32 19 13 7 0
178 175 164 160 154 145 138 136 136 135 136 138 141 130 132 130 122 113 105 101 89 84 82 70 64 60 54 41 40 40 33 31 39 45 27 27 33 34 19 13 13 7 1
179 178 173 164 158 149 141 144 143 145 152 139 139 140 139 135 130 120 115 104 99 98 87 85 75 64 53 35 36 32 29 36 57 55 42 24 30 23 13 16 7 4 358
183 182 172 171 162 153 154 152 149 150 149 143 147 150 142 138 134 125 122 113 103 101 97 88 78 67 52 17 30 32 22 47 60 60 46 33 22 12 9 9 6 359 352
187 175 174 171 161 161 158 154 155 156 146 151 152 154 140 146 140 130 125 119 114 114 110 97 83 72 42 12 20 25 32 53 64 87 68 41 4 11 7 5 4 355 347
178 179 172 171 166 163 162 159 156 154 151 156 157 155 145 151 144 134 129 123 125 120 113 89 67 64 21 5 342 -0 11 49 83 135 115 16 24 11 356 359 358 350 340
180 174 175 173 172 166 160 156 159 156 154 160 160 155 150 156 148 137 130 127 131 120 99 90 74 50 20 352 326 341 346 29 45 94 82 5 9 348 342 347 345 338 331
180 181 174 174 171 163 155 151 151 156 160 164 167 159 157 159 149 140 131 130 135 126 107 92 86 66 35 341 322 326 317 32 356 272 269 348 348 329 326 332 329 325 321
176 178 180 173 173 162 165 165 165 173 168 170 173 160 162 159 156 144 134 138 146 130 113 102 90 53 43 358 313 316 346 345 328 251 272 314 321 314 299 318 314 319 311
181 180 179 182 174 175 173 176 175 166 178 171 165 164 164 164 161 149 145 150 148 131 120 103 97 105 59 13 20 314 351 294 356 304 300 305 317 320 300 311 309 307 304
185 184 185 182 178 176 176 164 133 126 131 160 175 169 170 169 164 150 152 154 148 136 133 129 114 108 89 49 19 3 334 332 321 282 305 309 319 316 312 312 310 305 305
193 187 183 183 179 181 175 172 172 176 172 187 175 165 167 169 162 155 157 157 150 139 138 138 134 113 140 157 152 62 52 23 345 316 291 323 334 320 315 313 308 306 300
187 185 187 184 180 182 181 181 176 177 182 157 156 159 165 168 166 160 162 158 151 142 141 144 139 155 182 187 174 161 143 194 231 248 292 314 316 312 307 304 305 295 293
188 182 182 183 183 182 182 184 184 179 165 155 161 165 166 166 163 166 163 162 152 144 151 154 153 169 181 185 186 187 193 226 208 243 269 294 301 312 312 299 288 279 276